Location: G�migny
(47.9646°N, 1.6950°E)
Time: 07:48:36
(UTC+00:00)

STARLINK-70 - Pass Details

Date: 23 October 2019
Orbit: 548 x 551 km, 53.0° (Epoch: 16 November)

Event Time Altitude Azimuth Distance (km) Brightness Sun altitude
Rises 18:39:33 0° 293° (WNW) 2,720 8.5 -18.9°
Reaches altitude 10° 18:41:50 10° 298° (WNW) 1,826 7.3 -19.2°
Maximum altitude 18:45:53 51° 15° (NNE) 693 4.0 -19.9°
Enters shadow 18:46:30 47° 47° (NE) 739 3.9 -20.0°
